Home > Weather > Lucknow > Past weeks

Flag for India Past Weather in Lucknow, Uttar Pradesh, India — Yesterday and Last 2 Weeks

Now
100 °F

Haze.


Feels Like: 114 °F
Forecast: 87 / 110 °F
Wind: No wind

Location: Lucknow / Amausi

Current Time: Jun 1, 2016 at 11:02:37 AM

Latest Report: Jun 1, 2016 at 10:30 AM


Visibility: 3 mi

Pressure: 29.65 "Hg

Humidity: 45%

Dew Point: 75 °F

Location of LucknowLocation

Past Weather in Lucknow — Graph

°F

Lucknow Temperature Yesterday

Maximum temperature yesterday: 104 °F (at 2:30 PM)
Minimum temperature yesterday: 82 °F (at 3:00 AM)
Average temperature yesterday: 94 °F

High & Low Weather Summary for the Past Weeks

 TemperatureHumidityPressure
High115 °F (May 17, 3:00 PM)100% (May 22, 9:00 AM)29.77 "Hg (May 22, 9:00 AM)
Low72 °F (May 29, 3:00 AM)13% (May 17, 3:00 PM)29.39 "Hg (May 17, 6:30 PM)
Average93 °F54%29.52 "Hg
* Reported May 17 9:30 AM — Jun 1 10:00 AM, Lucknow, Weather by CustomWeather, © 2016

Note: Actual official high and low records may vary slightly from our data, if they occured in-between our weather recording intervals... More about our weather records

Advertising

Lucknow Weather History for the Previous 24 Hours

Scroll right to see more
 ConditionsComfort  
Time TempWeatherWind HumidityBarometerVisibility
10:00 AM
Wed, Jun 1
99 °FHaze.No wind47%29.65 "Hg3 mi
9:30 AM99 °FHaze.No wind47%29.65 "Hg3 mi
9:00 AM97 °FHaze.No wind47%29.65 "Hg3 mi
8:30 AM93 °FHaze.No wind53%29.65 "Hg2 mi
8:00 AM91 °FHaze.2 mph56%29.65 "Hg2 mi
7:30 AM88 °FHaze.2 mph59%29.65 "Hg2 mi
7:00 AM88 °FHaze.No wind62%29.65 "Hg2 mi
6:30 AM84 °FHaze.No wind66%29.65 "Hg2 mi
6:00 AM84 °FHaze.No wind66%29.62 "Hg2 mi
5:00 AM84 °FHaze.No wind66%29.62 "Hg2 mi
4:00 AM86 °FPassing clouds.5 mph59%29.62 "Hg2 mi
3:00 AM88 °FPassing clouds.5 mph55%29.62 "Hg2 mi
2:00 AM90 °FPassing clouds.5 mph52%29.59 "Hg2 mi
1:00 AM90 °FPassing clouds.8 mph52%29.62 "Hg2 mi
12:00 AM86 °FPassing clouds.2 mph55%29.62 "Hg2 mi
11:00 PM
Tue, May 31
88 °FPassing clouds.No wind55%29.62 "Hg2 mi
10:00 PM90 °FPassing clouds.No wind49%29.62 "Hg2 mi
9:00 PM91 °FPassing clouds.No wind46%29.59 "Hg2 mi
8:00 PM93 °FPassing clouds.2 mph44%29.56 "Hg2 mi
7:30 PM95 °FHaze.3 mph41%29.56 "Hg3 mi
7:00 PM97 °FHaze.5 mph39%29.56 "Hg3 mi
6:30 PM99 °FHaze.6 mph37%29.53 "Hg3 mi
6:00 PM100 °FHaze.8 mph33%29.53 "Hg3 mi
5:00 PM104 °FHaze.12 mph31%29.53 "Hg3 mi
4:30 PM104 °FHaze.12 mph29%29.56 "Hg3 mi
4:00 PM104 °FScattered clouds.6 mph33%29.56 "Hg3 mi
3:30 PM104 °FScattered clouds.6 mph35%29.56 "Hg3 mi
3:00 PM104 °FScattered clouds.7 mph38%29.56 "Hg3 mi
2:30 PM104 °FBroken clouds.7 mph38%29.59 "Hg3 mi
2:00 PM102 °FBroken clouds.8 mph42%29.62 "Hg3 mi
1:00 PM102 °FBroken clouds.7 mph40%29.62 "Hg3 mi
12:30 PM102 °FBroken clouds.2 mph40%29.62 "Hg3 mi
12:00 PM102 °FScattered clouds.2 mph42%29.65 "Hg3 mi
11:30 AM99 °FScattered clouds.2 mph44%29.65 "Hg2 mi
11:00 AM99 °FScattered clouds.3 mph47%29.65 "Hg2 mi
Weather by CustomWeather, © 2016

See weather overviewHow to use our weather pages